Location: Home
(42.5358°N, 72.7383°W)
Time: 18:09:14
(UTC-05:00)

SR - Pass Details

Date: 08 December 2021
Orbit: 582 x 872 km, 66.7° (Epoch: 20 January)

Event Time Altitude Azimuth Distance (km) Brightness Sun altitude
Exits shadow 06:35:03 - 334° (NNW) 2,700 ? -6.2°
Reaches altitude 10° 06:36:59 10° 339° (NNW) 1,941 ? -5.9°
Maximum altitude 06:41:13 51° 56° (NE) 781 ? -5.2°
Drops below altitude 10° 06:45:41 10° 132° (SE) 2,047 ? -4.5°
Sets 06:48:07 0° 138° (SE) 3,000 ? -4.1°
